| time (UTC) | temp F | wind direction | speed knots | gust knots | rain 1hr in | rain 24hr in | rain mn in | humidity % | barometer mb |
| 20260905163106 | 74 | 43 | 9.6 | 14.8 | 0.00 | 0.00 | 0.00 | 63 | 1011.1 |
| 20260905161601 | 74 | 34 | 11.3 | 13.9 | 0.00 | 0.00 | 0.00 | 63 | 1011.0 |
| 20260905160106 | 74 | 12 | 8.7 | 13.0 | 0.00 | 0.00 | 0.00 | 63 | 1011.1 |
| 20260905154615 | 74 | 10 | 8.7 | 14.8 | 0.00 | 0.00 | 0.00 | 65 | 1010.9 |
| 20260905153103 | 74 | 20 | 9.6 | 13.9 | 0.00 | 0.00 | 0.00 | 67 | 1011.1 |
| 20260905151624 | 74 | 48 | 9.6 | 14.8 | 0.00 | 0.00 | 0.00 | 65 | 1011.0 |
| 20260905150105 | 74 | 18 | 7.0 | 13.0 | 0.00 | 0.00 | 0.00 | 65 | 1011.0 |
| 20260905144609 | 74 | 31 | 9.6 | 13.9 | 0.00 | 0.00 | 0.00 | 64 | 1010.9 |
| 20260905143103 | 73 | 20 | 10.4 | 14.8 | 0.00 | 0.00 | 0.00 | 64 | 1010.9 |
| 20260905141603 | 73 | 14 | 8.7 | 12.2 | 0.00 | 0.00 | 0.00 | 66 | 1010.9 |
| 20260905140105 | 73 | 9 | 7.8 | 11.3 | 0.00 | 0.00 | 0.00 | 69 | 1010.6 |
| 20260905134605 | 72 | 19 | 7.0 | 10.4 | 0.00 | 0.00 | 0.00 | 68 | 1010.7 |
| 20260905133100 | 72 | 4 | 5.2 | 9.6 | 0.00 | 0.00 | 0.00 | 68 | 1010.7 |
| 20260905131607 | 71 | 355 | 4.3 | 7.8 | 0.00 | 0.00 | 0.00 | 69 | 1010.8 |
| 20260905124601 | 71 | 13 | 4.3 | 8.7 | 0.00 | 0.00 | 0.00 | 70 | 1011.2 |
| 20260905123104 | 70 | 5 | 4.3 | 9.6 | 0.00 | 0.00 | 0.00 | 71 | 1011.2 |
| 20260905121605 | 70 | 23 | 7.0 | 9.6 | 0.00 | 0.00 | 0.00 | 72 | 1011.2 |
| 20260905120101 | 70 | 27 | 5.2 | 7.8 | 0.00 | 0.00 | 0.00 | 72 | 1011.2 |
| 20260905114604 | 70 | 360 | 4.3 | 9.6 | 0.00 | 0.00 | 0.00 | 72 | 1011.2 |
| 20260905113101 | 70 | 25 | 6.1 | 8.7 | 0.00 | 0.00 | 0.00 | 71 | 1011.0 |
| 20260905111603 | 70 | 17 | 4.3 | 9.6 | 0.00 | 0.00 | 0.00 | 71 | 1010.8 |
| 20260905110111 | 70 | 12 | 6.1 | 10.4 | 0.00 | 0.00 | 0.00 | 71 | 1010.5 |
| 20260905104601 | 70 | 13 | 6.1 | 10.4 | 0.00 | 0.00 | 0.00 | 71 | 1010.4 |
| 20260905103102 | 70 | 355 | 7.0 | 9.6 | 0.00 | 0.00 | 0.00 | 71 | 1010.4 |
| 20260905101611 | 70 | 11 | 7.0 | 9.6 | 0.00 | 0.00 | 0.00 | 70 | 1010.2 |
| 20260905100105 | 71 | 23 | 6.1 | 8.7 | 0.00 | 0.00 | 0.00 | 69 | 1010.3 |
| 20260905094603 | 71 | 11 | 6.1 | 9.6 | 0.00 | 0.00 | 0.00 | 68 | 1010.3 |
| 20260905093126 | 71 | 347 | 6.1 | 11.3 | 0.00 | 0.00 | 0.00 | 68 | 1010.2 |
| 20260905091607 | 72 | 19 | 7.0 | 9.6 | 0.00 | 0.00 | 0.00 | 67 | 1010.1 |
| 20260905084604 | 72 | 11 | 6.1 | 8.7 | 0.00 | 0.00 | 0.00 | 67 | 1010.1 |
| 20260905083108 | 73 | 20 | 7.8 | 10.4 | 0.00 | 0.00 | 0.00 | 67 | 1010.2 |
| 20260905081604 | 73 | 337 | 7.0 | 10.4 | 0.00 | 0.00 | 0.00 | 67 | 1010.2 |
| 20260905080107 | 73 | 7 | 7.0 | 10.4 | 0.00 | 0.00 | 0.00 | 64 | 1010.2 |
| 20260905074604 | 73 | 360 | 6.1 | 10.4 | 0.00 | 0.00 | 0.00 | 64 | 1010.3 |
| 20260905073108 | 74 | 8 | 7.0 | 9.6 | 0.00 | 0.00 | 0.00 | 64 | 1010.3 |
| 20260905071603 | 74 | 355 | 7.0 | 11.3 | 0.00 | 0.00 | 0.00 | 62 | 1010.2 |
| 20260905070117 | 74 | 11 | 8.7 | 14.8 | 0.00 | 0.00 | 0.00 | 64 | 1010.1 |
| 20260905064603 | 74 | 14 | 8.7 | 12.2 | 0.00 | 0.00 | 0.00 | 67 | 1010.0 |
| 20260905063106 | 75 | 360 | 9.6 | 12.2 | 0.00 | 0.00 | 0.00 | 65 | 1010.1 |
| 20260905061610 | 75 | 19 | 7.8 | 10.4 | 0.00 | 0.00 | 0.00 | 66 | 1010.3 |
| 20260905060128 | 75 | 13 | 6.1 | 10.4 | 0.00 | 0.00 | 0.00 | 67 | 1010.4 |
| 20260905054615 | 75 | 10 | 5.2 | 10.4 | 0.00 | 0.00 | 0.00 | 65 | 1010.6 |
| 20260905053117 | 75 | 360 | 5.2 | 8.7 | 0.00 | 0.00 | 0.00 | 65 | 1010.9 |
| 20260905051609 | 75 | 12 | 3.5 | 7.8 | 0.00 | 0.00 | 0.00 | 67 | 1010.9 |
| 20260905050115 | 75 | 20 | 7.0 | 8.7 | 0.00 | 0.00 | 0.00 | 67 | 1011.0 |
| 20260905044620 | 75 | 12 | 6.1 | 8.7 | 0.00 | 0.00 | 0.00 | 66 | 1011.0 |
| 20260905043112 | 75 | 9 | 7.8 | 10.4 | 0.00 | 0.00 | 0.00 | 66 | 1011.1 |
| 20260905041601 | 76 | 14 | 7.8 | 11.3 | 0.00 | 0.00 | 0.00 | 67 | 1011.1 |
| 20260905040103 | 76 | 22 | 7.0 | 9.6 | 0.00 | 0.00 | 0.00 | 66 | 1011.2 |
| 20260905034613 | 76 | 5 | 7.0 | 13.0 | 0.00 | 0.00 | 0.00 | 65 | 1011.2 |
| 20260905033105 | 76 | 13 | 9.6 | 13.9 | 0.00 | 0.00 | 0.00 | 64 | 1011.0 |
| 20260905031608 | 77 | 346 | 7.8 | 10.4 | 0.00 | 0.00 | 0.00 | 64 | 1011.0 |
| 20260905030107 | 77 | 15 | 6.1 | 9.6 | 0.00 | 0.00 | 0.00 | 63 | 1011.0 |
| 20260905024604 | 77 | 355 | 6.1 | 8.7 | 0.00 | 0.00 | 0.00 | 62 | 1010.9 |
| 20260905023103 | 78 | 20 | 5.2 | 8.7 | 0.00 | 0.00 | 0.00 | 63 | 1010.9 |
| 20260905021606 | 78 | 347 | 6.1 | 10.4 | 0.00 | 0.00 | 0.00 | 61 | 1011.0 |
| 20260905020104 | 78 | 25 | 6.1 | 8.7 | 0.00 | 0.00 | 0.00 | 62 | 1011.1 |
| 20260905014601 | 78 | 21 | 4.3 | 7.8 | 0.00 | 0.00 | 0.00 | 62 | 1011.2 |
| 20260905013102 | 79 | 18 | 4.3 | 7.8 | 0.00 | 0.00 | 0.00 | 62 | 1011.2 |
| 20260905011602 | 79 | 8 | 5.2 | 8.7 | 0.00 | 0.00 | 0.00 | 62 | 1011.2 |
| 20260905010107 | 79 | 12 | 5.2 | 8.7 | 0.00 | 0.00 | 0.00 | 59 | 1011.0 |
| 20260905004636 | 80 | 4 | 6.1 | 8.7 | 0.00 | 0.00 | 0.00 | 60 | 1011.0 |
| 20260905003101 | 80 | 25 | 4.3 | 7.0 | 0.00 | 0.00 | 0.00 | 60 | 1011.0 |
| 20260905001603 | 80 | 12 | 4.3 | 7.8 | 0.00 | 0.00 | 0.00 | 59 | 1010.9 |
| 20260904234600 | 80 | 13 | 7.0 | 10.4 | 0.00 | 0.00 | 0.00 | 55 | 1010.7 |
| 20260904233103 | 81 | 4 | 2.6 | 10.4 | 0.00 | 0.00 | 0.00 | 58 | 1010.8 |
| 20260904231607 | 81 | 303 | 6.1 | 12.2 | 0.00 | 0.00 | 0.00 | 55 | 1010.8 |
| 20260904230128 | 82 | 289 | 6.1 | 12.2 | 0.00 | 0.00 | 0.00 | 54 | 1010.7 |
| 20260904224604 | 82 | 4 | 3.5 | 7.8 | 0.00 | 0.00 | 0.00 | 56 | 1010.7 |
| 20260904223107 | 83 | 281 | 6.1 | 11.3 | 0.00 | 0.00 | 0.00 | 54 | 1010.8 |
| 20260904221610 | 83 | 299 | 6.1 | 11.3 | 0.00 | 0.00 | 0.00 | 53 | 1010.9 |
| 20260904220110 | 83 | 324 | 7.0 | 11.3 | 0.00 | 0.00 | 0.00 | 53 | 1010.8 |
| 20260904214606 | 83 | 298 | 7.0 | 12.2 | 0.00 | 0.00 | 0.00 | 51 | 1010.6 |
| 20260904213105 | 83 | 345 | 4.3 | 10.4 | 0.00 | 0.00 | 0.00 | 55 | 1010.4 |
| 20260904211604 | 83 | 347 | 5.2 | 9.6 | 0.00 | 0.00 | 0.00 | 52 | 1010.3 |
| 20260904210109 | 83 | 310 | 4.3 | 11.3 | 0.00 | 0.00 | 0.00 | 54 | 1010.6 |
| 20260904204605 | 83 | 293 | 9.6 | 13.9 | 0.00 | 0.00 | 0.00 | 50 | 1010.8 |
| 20260904203110 | 83 | 289 | 7.8 | 13.9 | 0.00 | 0.00 | 0.00 | 50 | 1010.9 |
| 20260904201604 | 83 | 299 | 4.3 | 11.3 | 0.00 | 0.00 | 0.00 | 53 | 1010.8 |
| 20260904200106 | 83 | 243 | 8.7 | 13.0 | 0.00 | 0.00 | 0.00 | 52 | 1011.1 |
| 20260904194610 | 83 | 308 | 6.1 | 13.9 | 0.00 | 0.00 | 0.00 | 52 | 1011.2 |
| 20260904193100 | 82 | 292 | 6.1 | 13.0 | 0.00 | 0.00 | 0.00 | 53 | 1011.2 |
| 20260904191602 | 82 | 312 | 4.3 | 14.8 | 0.00 | 0.00 | 0.00 | 53 | 1011.3 |
| 20260904190110 | 82 | 329 | 7.0 | 13.0 | 0.00 | 0.00 | 0.00 | 52 | 1011.6 |
| 20260904184602 | 82 | 280 | 4.3 | 22.6 | 0.00 | 0.00 | 0.00 | 55 | 1011.7 |
| 20260904183116 | 82 | 7 | 3.5 | 14.8 | 0.00 | 0.00 | 0.00 | 56 | 1011.7 |
| 20260904181604 | 82 | 313 | 3.5 | 9.6 | 0.00 | 0.00 | 0.00 | 56 | 1011.7 |
| 20260904180110 | 81 | 11 | 7.0 | 11.3 | 0.00 | 0.00 | 0.00 | 56 | 1011.7 |
| 20260904174604 | 81 | 345 | 7.8 | 16.5 | 0.00 | 0.00 | 0.00 | 56 | 1011.6 |
| 20260904173105 | 81 | 11 | 7.0 | 13.9 | 0.00 | 0.00 | 0.00 | 57 | 1011.6 |
| 20260904171601 | 81 | 334 | 6.1 | 13.9 | 0.00 | 0.00 | 0.00 | 57 | 1011.6 |
| 20260904170105 | 81 | 8 | 11.3 | 17.4 | 0.00 | 0.00 | 0.00 | 57 | 1011.7 |
| 20260904164612 | 81 | 302 | 10.4 | 16.5 | 0.00 | 0.00 | 0.00 | 60 | 1011.7 |